Date String (YYYY-MM-DD hh:mm:ss) UTC,Instrument flags,Ambient pressure (hPa),Sample flow (lpm),Bypass flow (lpm),Sample temperature (°C),Ambient temperature (°C),ASC tube jacket temperature (°C),LED temperature (°C),Box temperature (°C),Sample RH (%),Span deviation,Mass concentration (μg/m³),Mass concentration (μg/m³),Mass concentration (μg/m³)
DateTimeUTC,F1_M11,P_M11,Q1_M11,Q2_M11,T1_M11,T2_M11,T3_M11,T4_M11,T5_M11,U1_M11,ZSPAN_M11,X0_M11,X2_M11,X1_M11
2021-10-02 03:00:00,,0830.6,5.01,0.00,30.2,29.3,00.0,39.2,32.0,20.9,0001.7,0012.81,0006.61,0006.01
2021-10-02 03:01:00,,0830.6,4.98,0.00,30.2,29.3,00.0,39.2,32.0,20.8,0001.7,0012.68,0006.63,0006.02
2021-10-02 03:02:00,,0830.6,5.00,0.00,30.2,29.4,00.0,39.2,32.0,20.7,0001.5,0012.99,0006.62,0006.01
2021-10-02 03:03:00,,0830.6,5.01,0.00,30.2,29.4,00.0,39.2,32.0,20.7,0001.3,0013.17,0006.61,0006.02
2021-10-02 03:04:00,,0830.6,4.99,0.00,30.3,29.4,00.0,39.2,32.0,20.7,0001.6,0013.64,0006.60,0006.02
2021-10-02 03:05:00,,0830.6,5.01,0.00,30.2,28.3,00.0,39.2,31.7,20.6,0001.4,0013.47,0006.60,0006.03
2021-10-02 03:06:00,,0830.6,5.00,0.00,30.1,26.5,00.0,39.2,31.3,20.8,0001.4,0013.19,0006.61,0006.03
2021-10-02 03:07:00,,0830.6,4.99,0.00,29.9,26.3,00.0,39.2,31.2,21.0,0001.2,0012.69,0006.64,0006.04
2021-10-02 03:08:00,,0830.6,5.02,0.00,29.8,26.7,00.0,39.1,31.2,21.1,0001.1,0013.05,0006.63,0006.03
2021-10-02 03:09:00,,0830.6,4.99,0.00,29.8,27.1,00.0,39.1,31.3,21.2,0000.8,0013.50,0006.65,0006.01
2021-10-02 03:10:00,,0830.6,5.00,0.00,29.8,27.5,00.0,39.0,31.4,21.2,0000.6,0012.97,0006.67,0006.00
2021-10-02 03:11:00,,0830.6,5.01,0.00,29.8,27.8,00.0,39.0,31.4,21.2,0000.9,0013.00,0006.66,0005.99
2021-10-02 03:12:00,,0830.6,5.01,0.00,29.8,28.0,00.0,39.0,31.5,21.2,0001.0,0012.94,0006.65,0006.00
2021-10-02 03:13:00,,0830.6,5.00,0.00,29.8,28.3,00.0,39.0,31.5,21.3,0001.0,0012.55,0006.63,0005.99
2021-10-02 03:14:00,,0830.6,5.01,0.00,29.8,28.4,00.0,39.0,31.6,21.5,0001.2,0012.40,0006.61,0005.99
2021-10-02 03:15:00,,0830.6,5.00,0.00,29.8,28.6,00.0,39.0,31.6,21.7,0001.3,0011.86,0006.60,0005.99
2021-10-02 03:16:00,,0830.6,5.00,0.00,29.8,28.7,00.0,39.0,31.6,21.9,0001.4,0011.77,0006.60,0005.98
2021-10-02 03:17:00,,0830.6,4.99,0.00,29.9,28.7,00.0,39.0,31.6,21.3,0001.3,0011.87,0006.62,0006.00
2021-10-02 03:18:00,,0830.6,4.99,0.00,29.9,28.8,00.0,39.0,31.7,21.0,0001.0,0011.85,0006.63,0005.99
2021-10-02 03:19:00,,0830.6,5.01,0.00,29.9,28.9,00.0,39.0,31.7,21.1,0001.1,0011.63,0006.64,0006.00
2021-10-02 03:20:00,,0830.6,4.99,0.00,29.9,28.9,00.0,39.0,31.7,21.1,0001.5,0011.35,0006.61,0006.01
2021-10-02 03:21:00,,0830.6,4.99,0.00,29.9,29.0,00.0,39.0,31.8,21.1,0001.7,0011.27,0006.60,0006.02
2021-10-02 03:22:00,,0830.6,5.01,0.00,30.0,29.0,00.0,39.0,31.8,21.0,0001.5,0011.72,0006.58,0006.01
2021-10-02 03:23:00,,0830.6,5.00,0.00,30.0,29.0,00.0,39.0,31.7,21.0,0001.5,0012.14,0006.56,0006.00
2021-10-02 03:24:00,,0830.7,4.98,0.00,30.0,29.1,00.0,39.0,31.8,21.1,0001.7,0011.96,0006.55,0006.00
2021-10-02 03:25:00,,0830.7,5.01,0.00,30.0,29.1,00.0,39.1,31.9,21.7,0001.6,0012.05,0006.59,0005.99
2021-10-02 03:26:00,,0830.7,5.00,0.00,30.1,29.2,00.0,39.1,31.9,21.1,0001.2,0012.17,0006.62,0006.00
2021-10-02 03:27:00,,0830.7,5.00,0.00,30.1,29.2,00.0,39.1,31.9,21.4,0001.2,0012.25,0006.66,0005.99
2021-10-02 03:28:00,,0830.7,5.01,0.00,30.1,29.2,00.0,39.1,31.9,21.5,0001.4,0012.20,0006.68,0006.00
2021-10-02 03:29:00,,0830.7,5.00,0.00,30.1,29.3,00.0,39.1,31.9,21.4,0001.8,0012.31,0006.69,0005.98
2021-10-02 03:30:00,,0830.7,4.99,0.00,30.1,29.3,00.0,39.1,32.0,21.4,0002.0,0012.36,0006.69,0005.99
2021-10-02 03:31:00,,0830.7,5.00,0.00,30.2,29.3,00.0,39.2,32.0,21.2,0001.7,0012.23,0006.72,0006.00
2021-10-02 03:32:00,,0830.7,5.01,0.00,30.2,29.4,00.0,39.2,32.0,21.1,0001.6,0012.37,0006.76,0006.02
2021-10-02 03:33:00,,0830.7,4.99,0.00,30.2,29.4,00.0,39.2,32.0,21.0,0001.5,0012.20,0006.77,0006.04
2021-10-02 03:34:00,,0830.8,5.00,0.00,30.2,29.4,00.0,39.2,32.0,21.1,0001.4,0012.03,0006.81,0006.05
2021-10-02 03:35:00,,0830.7,5.01,0.00,30.2,29.4,00.0,39.2,32.0,21.1,0001.6,0012.09,0006.85,0006.05
2021-10-02 03:36:00,,0830.8,4.98,0.00,30.3,29.5,00.0,39.2,32.0,21.1,0001.5,0012.03,0006.87,0006.06
2021-10-02 03:37:00,,0830.8,5.02,0.00,30.3,29.5,00.0,39.3,32.1,20.9,0001.8,0012.01,0006.83,0006.07
2021-10-02 03:38:00,,0830.8,4.98,0.00,30.3,29.3,00.0,39.3,32.0,20.9,0002.0,0011.81,0006.78,0006.07
2021-10-02 03:39:00,,0830.8,5.01,0.00,30.2,27.4,00.0,39.3,31.6,21.0,0002.0,0011.73,0006.74,0006.05
2021-10-02 03:40:00,,0830.8,5.00,0.00,30.1,26.4,00.0,39.2,31.4,21.0,0001.9,0011.79,0006.70,0006.04
2021-10-02 03:41:00,,0830.7,5.00,0.00,29.9,26.5,00.0,39.2,31.3,21.3,0001.8,0012.27,0006.71,0006.03
2021-10-02 03:42:00,,0830.8,4.99,0.00,29.9,26.9,00.0,39.1,31.3,21.4,0001.9,0012.60,0006.68,0006.02
2021-10-02 03:43:00,,0830.7,5.00,0.00,29.8,27.3,00.0,39.1,31.4,21.2,0001.9,0012.75,0006.62,0005.99
2021-10-02 03:44:00,,0830.8,5.01,0.00,29.8,27.7,00.0,39.1,31.4,21.2,0001.9,0012.52,0006.58,0005.97
2021-10-02 03:45:00,,0830.8,4.98,0.00,29.8,27.9,00.0,39.0,31.5,21.3,0002.1,0012.36,0006.54,0005.95
2021-10-02 03:46:00,,0830.7,5.02,0.00,29.8,28.2,00.0,39.0,31.5,20.9,0001.7,0012.32,0006.46,0005.93
2021-10-02 03:47:00,,0830.9,5.00,0.00,29.8,28.4,00.0,39.0,31.5,21.3,0001.5,0012.17,0006.41,0005.91
2021-10-02 03:48:00,,0830.8,4.99,0.00,29.9,28.5,00.0,39.0,31.6,21.7,0001.3,0012.15,0006.41,0005.89
2021-10-02 03:49:00,,0830.9,5.00,0.00,29.9,28.6,00.0,39.0,31.6,21.1,0001.1,0012.28,0006.47,0005.88
2021-10-02 03:50:00,,0830.9,5.02,0.00,29.9,28.7,00.0,39.0,31.7,20.8,0000.9,0012.33,0006.47,0005.88
2021-10-02 03:51:00,,0830.9,4.99,0.00,29.9,28.8,00.0,39.0,31.7,20.8,0000.7,0012.43,0006.48,0005.91
2021-10-02 03:52:00,,0830.9,4.99,0.00,29.9,28.9,00.0,39.0,31.7,20.8,0000.8,0012.03,0006.44,0005.92
2021-10-02 03:53:00,,0830.9,5.01,0.00,29.9,28.9,00.0,39.0,31.7,20.8,0000.7,0012.30,0006.42,0005.92
2021-10-02 03:54:00,,0831.0,4.98,0.00,30.0,29.0,00.0,39.0,31.7,20.8,0000.6,0013.08,0006.49,0005.95
2021-10-02 03:55:00,,0830.9,5.02,0.00,30.0,29.0,00.0,39.0,31.8,20.8,0000.5,0014.24,0006.61,0006.02
2021-10-02 03:56:00,,0830.9,4.99,0.00,30.0,29.1,00.0,39.1,31.8,20.8,0000.0,0014.37,0006.70,0006.09
2021-10-02 03:57:00,,0830.9,5.01,0.00,30.0,29.1,00.0,39.1,31.8,20.9,0000.3,0014.57,0006.83,0006.15
2021-10-02 03:58:00,,0830.9,4.99,0.00,30.1,29.2,00.0,39.1,31.9,20.9,0000.6,0014.78,0006.92,0006.22
2021-10-02 03:59:00,,0830.9,5.01,0.00,30.1,29.2,00.0,39.1,31.9,20.9,0000.9,0014.85,0006.98,0006.29
